QPF
0.00 0.00 0.00 0.00 0.00 0.00 0.00 0.00 0.00 0.00 0.00 0.00 0.00 0.00 0.00 0.00 0.00 0.00 0.00 0.00 0.00 0.00 0.00 0.00 0.00 0.00 0.00 0.00 0.00 0.00 0.00 0.00 0.00 0.00 0.00 0.00 0.00 0.00 0.00 0.00 0.00 0.00 0.00 0.00
0.00 0.00 0.00 0.00 0.00 0.00 0.00 0.00 0.00 0.00 0.00 0.00 0.00 0.00 0.00 0.00 0.00 0.00 0.00 0.00 0.00 0.00 0.00 0.00 0.00 0.00 0.00 0.00 0.00 0.00 0.00 0.00 0.00 0.00 0.00 0.00 0.00 0.00 0.00 0.00 0.00 0.00 0.00 0.00
0.00 0.00 0.00 0.00 0.00 0.00 0.00 0.00 0.00 0.00 0.00 0.00 0.00 0.00 0.00 0.00 0.00 0.00 0.00 0.00 0.00 0.00 0.00 0.00 0.00 0.00 0.00 0.00 0.00 0.00 0.00 0.00 0.00 0.00 0.00 0.00 0.00 0.00 0.00 0.00 0.00 0.00 0.00 0.00
0.00 0.00 0.00 0.00 0.00 0.00 0.00 0.00 0.00 0.00 0.00 0.00 0.00 0.00 0.00 0.00 0.00 0.00 0.00 0.00 0.00 0.00 0.00 0.00 0.00 0.00 0.00 0.00 0.00 0.00 0.00 0.00 0.00 0.00 0.00 0.00 0.00 0.00 0.00 0.00 0.00 0.00 0.00 0.00
0.00 0.00 0.00 0.00 0.00 0.00 0.00 0.00 0.00 0.00 0.00 0.00 0.00 0.00 0.00 0.00 0.00 0.00 0.00 0.00 0.00 0.00 0.00 0.00 0.00 0.00 0.00 0.00 0.00 0.00 0.00 0.00 0.00 0.00 0.00 0.00 0.00 0.00 0.00 0.00 0.00 0.00 0.00 0.00
0.00 0.00 0.00 0.00 0.00 0.00 0.00 0.00 0.00 0.00 0.00 0.00 0.00 0.00 0.00 0.00 0.00 0.00 0.00 0.00 0.00 0.00 0.00 0.00 0.00 0.00 0.00 0.00 0.00 0.00 0.00 0.00 0.00 0.00 0.00 0.00 0.00 0.00 0.00 0.00 0.00 0.00 0.00 0.00
0.00 0.00 0.00 0.00 0.00 0.00 0.00 0.00 0.00 0.00 0.00 0.00 0.00 0.00 0.00 0.00 0.00 0.00 0.00 0.00 0.00 0.00 0.00 0.00 0.00 0.00 0.00 0.00 0.00 0.00 0.00 0.00 0.00 0.00 0.00 0.00 0.00 0.00 0.00 0.00 0.00 0.00 0.00 0.00
0.00 0.00 0.00 0.00 0.00 0.00 0.00 0.00 0.00 0.00 0.00 0.00 0.00 0.00 0.00 0.00 0.00 0.00 0.00 0.00 0.00 0.00 0.00 0.00 0.00 0.00 0.00 0.00 0.00 0.00 0.00 0.00 0.00 0.00 0.00 0.00 0.00 0.00 0.00 0.00 0.00 0.00 0.00 0.00
0.00 0.00 0.00 0.00 0.00 0.00 0.00 0.00 0.00 0.00 0.00 0.00 0.00 0.00 0.00 0.00 0.00 0.00 0.00 0.00 0.00 0.00 0.00 0.00 0.00 0.00 0.00 0.00 0.00 0.00 0.00 0.00 0.00 0.00 0.00 0.00 0.00 0.00 0.00 0.00 0.00 0.00 0.00 0.00
0.00 0.00 0.00 0.00 0.00 0.00 0.00 0.00 0.00 0.00 0.00 0.00 0.00 0.00 0.00 0.00 0.00 0.00 0.00 0.00 0.00 0.00 0.00 0.00 0.00 0.00 0.00 0.00 0.00 0.00 0.00 0.00 0.00 0.00 0.00 0.00 0.00 0.00 0.00 0.00 0.00 0.00 0.00 0.00
0.00 0.00 0.00 0.00 0.00 0.00 0.00 0.00 0.00 0.00 0.00 0.00 0.00 0.00 0.00 0.00 0.00 0.00 0.00 0.00 0.00 0.00 0.00 0.00 0.00 0.00 0.00 0.00 0.00 0.00 0.00 0.00 0.00 0.00 0.00 0.00 0.00 0.00 0.00 0.00 0.00 0.00 0.00 0.00
0.00 0.00 0.00 0.00 0.00 0.00 0.00 0.00 0.00 0.00 0.00 0.00 0.00 0.00 0.00 0.00 0.00 0.00 0.00 0.00 0.00 0.00 0.00 0.00 0.00 0.00 0.00 0.00 0.00 0.00 0.00 0.00 0.00 0.00 0.00 0.00 0.00 0.00 0.00 0.00 0.00 0.00 0.00 0.00
0.00 0.00 0.00 0.00 0.00 0.00 0.00 0.00 0.00 0.00 0.00 0.00 0.00 0.00 0.00 0.00 0.00 0.00 0.00 0.00 0.00 0.00 0.00 0.00 0.00 0.00 0.00 0.00 0.00 0.00 0.00 0.00 0.00 0.00 0.00 0.00 0.00 0.00 0.00 0.00 0.00 0.00 0.00 0.00
0.00 0.00 0.00 0.00 0.00 0.00 0.00 0.00 0.00 0.00 0.00 0.00 0.00 0.00 0.00 0.00 0.00 0.00 0.00 0.00 0.00 0.00 0.00 0.00 0.00 0.00 0.00 0.00 0.00 0.00 0.00 0.00 0.00 0.00 0.00 0.00 0.00 0.00 0.00 0.00 0.00 0.00 0.00 0.00
0.00 0.00 0.00 0.00 0.00 0.00 0.00 0.00 0.00 0.00 0.00 0.00 0.00 0.00 0.00 0.00 0.00 0.00 0.00 0.00 0.00 0.00 0.00 0.00 0.00 0.00 0.00 0.00 0.00 0.00 0.00 0.00 0.00 0.00 0.00 0.00 0.00 0.00 0.00 0.00 0.00 0.00 0.00 0.00
0.00 0.00 0.00 0.00 0.00 0.00 0.01 0.00 0.00 0.00 0.00 0.00 0.00 0.00 0.00 0.00 0.00 0.00 0.00 0.00 0.00 0.00 0.00 0.00 0.00 0.00 0.00 0.00 0.00 0.00 0.00 0.00 0.00 0.00 0.00 0.00 0.00 0.00 0.00 0.00 0.00 0.00 0.00 0.00
0.00 0.00 0.00 0.00 0.00 0.01 0.00 0.00 0.00 0.00 0.00 0.00 0.00 0.00 0.00 0.00 0.00 0.00 0.00 0.00 0.00 0.00 0.00 0.00 0.00 0.00 0.00 0.00 0.00 0.00 0.00 0.00 0.00 0.00 0.00 0.00 0.00 0.00 0.00 0.00 0.00 0.00 0.00 0.00
0.00 0.00 0.00 0.00 0.00 0.00 0.00 0.00 0.00 0.00 0.00 0.00 0.00 0.00 0.00 0.00 0.00 0.00 0.00 0.00 0.00 0.00 0.00 0.00 0.00 0.00 0.00 0.00 0.00 0.00 0.00 0.00 0.00 0.00 0.00 0.00 0.00 0.00 0.00 0.00 0.00 0.00 0.00 0.00
0.00 0.00 0.00 0.01 0.00 0.00 0.00 0.00 0.00 0.00 0.00 0.00 0.00 0.00 0.00 0.00 0.00 0.00 0.00 0.00 0.00 0.00 0.00 0.00 0.00 0.00 0.00 0.00 0.00 0.00 0.00 0.00 0.00 0.00 0.00 0.00 0.00 0.00 0.00 0.00 0.00 0.00 0.00 0.00
0.00 0.01 0.02 0.00 0.00 0.01 0.00 0.00 0.00 0.00 0.00 0.00 0.00 0.00 0.00 0.00 0.00 0.00 0.00 0.00 0.00 0.00 0.00 0.00 0.00 0.00 0.00 0.00 0.00 0.00 0.00 0.00 0.00 0.00 0.00 0.00 0.00 0.00 0.00 0.00 0.00 0.00 0.00 0.00
0.01 0.01 0.01 0.01 0.01 0.01 0.00 0.00 0.00 0.00 0.00 0.00 0.00 0.00 0.00 0.00 0.00 0.00 0.00 0.00 0.00 0.00 0.00 0.00 0.00 0.00 0.00 0.00 0.00 0.00 0.00 0.00 0.00 0.00 0.00 0.00 0.00 0.00 0.00 0.00 0.00 0.00 0.00 0.00
0.00 0.01 0.01 0.00 0.01 0.00 0.00 0.00 0.00 0.00 0.00 0.00 0.00 0.00 0.00 0.00 0.00 0.00 0.00 0.00 0.00 0.00 0.00 0.00 0.00 0.00 0.00 0.00 0.00 0.00 0.00 0.00 0.00 0.00 0.00 0.00 0.00 0.00 0.00 0.00 0.00 0.00 0.00 0.00
0.04 0.02 0.00 0.00 0.00 0.00 0.00 0.00 0.00 0.00 0.00 0.00 0.00 0.00 0.00 0.00 0.00 0.00 0.00 0.00 0.00 0.00 0.00 0.00 0.00 0.00 0.00 0.00 0.00 0.00 0.00 0.00 0.00 0.00 0.00 0.00 0.00 0.00 0.00 0.00 0.00 0.00 0.00 0.00
0.03 0.01 0.00 0.00 0.00 0.00 0.00 0.00 0.00 0.00 0.00 0.00 0.00 0.00 0.00 0.00 0.00 0.00 0.00 0.00 0.00 0.00 0.00 0.00 0.00 0.00 0.00 0.00 0.00 0.00 0.00 0.00 0.00 0.00 0.00 0.00 0.00 0.00 0.00 0.00 0.00 0.00 0.00 0.00
0.01 0.00 0.00 0.00 0.00 0.00 0.00 0.00 0.00 0.00 0.00 0.00 0.00 0.00 0.00 0.00 0.00 0.00 0.00 0.00 0.00 0.00 0.00 0.00 0.00 0.00 0.00 0.00 0.00 0.00 0.00 0.00 0.00 0.00 0.00 0.00 0.00 0.00 0.00 0.00 0.00 0.00 0.00 0.00
0.00 0.00 0.00 0.00 0.00 0.00 0.00 0.00 0.00 0.00 0.00 0.00 0.00 0.00 0.00 0.00 0.00 0.00 0.00 0.00 0.00 0.00 0.00 0.00 0.00 0.00 0.00 0.00 0.00 0.00 0.00 0.00 0.00 0.00 0.00 0.00 0.00 0.00 0.00 0.00 0.00 0.00 0.00 0.00
0.00 0.00 0.00 0.00 0.00 0.00 0.00 0.00 0.00 0.00 0.00 0.00 0.00 0.00 0.00 0.00 0.00 0.00 0.00 0.00 0.00 0.00 0.00 0.00 0.00 0.00 0.00 0.00 0.00 0.00 0.00 0.00 0.00 0.00 0.00 0.00 0.00 0.00 0.00 0.00 0.00 0.00 0.00 0.00
MSLP
1016.10 1016.61 1017.06 1017.43 1017.51 1017.52 1017.61 1016.15 1015.11 1015.74 1015.89 1015.02 1014.03 1012.79 1012.53 1012.55 1010.87 1010.31 1009.63 1009.22 1008.82 1008.78 1009.17 1009.42 1009.77 1010.19 1010.89 1011.37 1011.15 1010.30 1010.55 1009.86 1009.27 1009.74 1010.29 1010.13 1009.75 1009.87 1009.66 1009.25 1009.90 1011.09 1012.08 1015.22
1015.91 1016.39 1016.93 1017.27 1017.31 1017.14 1016.73 1015.12 1015.10 1015.52 1015.50 1013.93 1013.28 1013.13 1012.61 1012.15 1011.02 1010.35 1009.77 1009.41 1009.31 1009.42 1009.56 1009.96 1010.37 1010.92 1011.76 1011.78 1011.57 1011.43 1011.22 1010.80 1010.17 1010.40 1010.68 1010.52 1010.65 1011.00 1011.01 1010.89 1011.01 1011.95 1012.81 1015.45
1015.79 1016.29 1016.71 1016.94 1016.98 1016.97 1017.02 1015.05 1014.66 1014.94 1014.65 1014.35 1013.10 1012.73 1012.32 1011.87 1011.43 1010.78 1010.25 1009.81 1009.64 1009.60 1009.92 1010.21 1010.64 1011.14 1011.90 1012.16 1012.25 1012.41 1011.95 1011.87 1011.47 1011.03 1011.50 1011.67 1011.80 1011.71 1011.60 1011.44 1011.61 1012.64 1014.21 1015.90
1015.54 1016.09 1016.49 1016.78 1016.85 1017.09 1016.97 1015.07 1014.27 1014.34 1013.95 1013.91 1013.35 1012.89 1012.43 1011.84 1011.31 1010.98 1010.48 1010.07 1009.67 1009.62 1010.00 1010.34 1010.73 1011.26 1011.77 1012.22 1012.56 1012.51 1012.24 1012.56 1012.80 1012.74 1012.89 1012.92 1012.91 1012.83 1012.69 1012.85 1013.39 1013.59 1015.21 1016.35
1015.32 1015.99 1016.43 1016.69 1016.86 1017.05 1016.40 1015.11 1014.33 1014.73 1014.32 1013.93 1013.33 1013.16 1012.63 1012.00 1011.80 1011.13 1010.57 1010.11 1010.35 1010.19 1010.23 1010.22 1010.68 1011.13 1011.59 1011.87 1012.39 1012.61 1013.06 1013.58 1013.58 1013.92 1013.92 1013.81 1013.96 1014.04 1014.09 1014.33 1014.64 1015.23 1015.92 1017.29
1015.21 1015.87 1016.37 1016.61 1016.80 1016.95 1015.94 1015.80 1015.40 1014.54 1014.77 1013.94 1013.43 1013.15 1012.72 1012.39 1012.21 1011.90 1011.53 1010.75 1010.73 1010.99 1011.45 1011.36 1011.65 1011.98 1012.32 1012.49 1012.43 1012.88 1013.22 1013.73 1013.83 1014.34 1014.91 1014.81 1014.95 1015.27 1015.17 1015.55 1015.87 1016.00 1016.40 1017.98
1015.09 1015.73 1016.25 1016.57 1016.73 1016.93 1016.04 1016.03 1015.53 1014.30 1014.23 1013.95 1013.73 1013.52 1012.90 1012.66 1012.51 1012.10 1012.25 1011.93 1011.51 1012.69 1012.63 1012.49 1012.49 1012.52 1012.74 1013.09 1013.42 1013.48 1013.50 1013.85 1014.34 1014.77 1015.42 1015.57 1015.99 1016.27 1016.13 1016.27 1016.75 1017.17 1017.68 1018.50
1015.04 1015.69 1016.17 1016.54 1016.76 1016.93 1016.69 1016.39 1015.73 1014.64 1014.23 1014.06 1014.09 1013.67 1013.19 1013.14 1013.14 1012.93 1012.74 1013.08 1013.36 1013.04 1012.82 1012.57 1012.78 1013.02 1013.09 1013.65 1014.03 1013.95 1013.91 1013.99 1014.75 1015.33 1015.45 1016.26 1016.32 1016.47 1016.45 1016.31 1017.07 1017.75 1018.15 1019.09
1014.99 1015.62 1016.12 1016.55 1016.83 1017.00 1017.01 1016.72 1016.42 1015.57 1014.59 1014.60 1014.49 1013.85 1013.51 1013.05 1013.04 1013.32 1013.65 1014.09 1014.09 1013.55 1013.09 1012.97 1013.13 1013.19 1013.13 1013.63 1014.15 1014.49 1014.39 1014.25 1014.49 1015.73 1015.85 1015.73 1015.73 1016.44 1016.81 1016.90 1017.11 1018.24 1018.77 1019.48
1014.97 1015.49 1016.04 1016.46 1016.86 1017.01 1016.81 1016.63 1016.78 1016.12 1015.14 1015.36 1015.06 1014.21 1013.90 1013.74 1013.56 1013.28 1013.83 1014.07 1014.09 1013.92 1013.19 1013.33 1013.59 1013.64 1013.91 1013.66 1013.81 1014.23 1014.28 1014.44 1014.63 1015.27 1015.68 1016.09 1016.41 1016.87 1017.03 1017.12 1018.31 1018.78 1019.35 1020.07
1014.83 1015.39 1015.94 1016.39 1016.78 1017.00 1016.73 1016.65 1017.01 1016.62 1015.67 1015.68 1015.54 1015.29 1014.74 1014.39 1014.02 1013.36 1014.29 1014.27 1014.22 1013.95 1013.60 1013.84 1014.19 1014.24 1014.37 1014.17 1014.18 1014.17 1014.11 1014.46 1014.82 1015.44 1015.77 1016.37 1016.86 1017.25 1017.30 1018.02 1018.86 1019.49 1020.24 1021.11
1014.66 1015.21 1015.80 1016.33 1016.72 1017.05 1017.05 1016.61 1017.17 1016.97 1016.39 1016.04 1016.17 1016.03 1015.96 1015.90 1015.55 1014.68 1014.64 1014.10 1014.01 1014.18 1014.05 1014.71 1014.97 1015.05 1015.09 1014.44 1014.39 1015.06 1014.69 1014.79 1014.87 1015.82 1016.17 1017.20 1017.63 1017.64 1018.38 1018.63 1019.27 1020.13 1020.95 1022.02
1014.61 1015.13 1015.71 1016.31 1016.73 1017.11 1017.10 1016.79 1017.31 1016.85 1016.14 1016.05 1015.72 1015.83 1016.08 1016.15 1015.99 1015.80 1014.73 1014.69 1014.73 1014.94 1015.34 1015.18 1015.68 1015.59 1015.57 1015.05 1014.75 1014.88 1015.35 1015.71 1015.57 1016.25 1017.51 1017.75 1018.36 1018.84 1019.26 1019.67 1020.30 1020.97 1021.87 1022.71
1014.65 1015.13 1015.73 1016.33 1016.81 1017.27 1017.55 1017.04 1017.45 1016.74 1016.25 1016.08 1016.34 1016.15 1016.18 1016.37 1015.77 1015.64 1015.44 1014.95 1015.37 1015.63 1015.64 1015.96 1016.39 1016.36 1016.66 1015.96 1015.75 1015.21 1015.58 1015.93 1016.23 1017.26 1017.91 1018.61 1019.06 1019.41 1020.19 1020.83 1021.43 1022.08 1022.93 1023.55
1014.68 1015.28 1015.87 1016.40 1016.95 1017.49 1017.62 1017.63 1017.62 1017.13 1016.92 1016.11 1016.15 1016.49 1016.64 1016.22 1015.77 1015.56 1015.41 1015.23 1015.16 1015.37 1016.15 1016.74 1016.98 1017.13 1017.03 1016.99 1016.56 1015.99 1016.12 1016.15 1016.13 1016.15 1017.23 1017.63 1019.07 1020.22 1020.93 1021.42 1022.13 1022.94 1023.64 1024.46
1014.79 1015.44 1016.01 1016.50 1017.13 1017.71 1017.69 1017.93 1017.13 1017.12 1017.42 1016.31 1016.21 1016.86 1016.59 1016.37 1016.27 1015.95 1015.93 1015.87 1015.89 1016.03 1016.37 1017.09 1017.49 1017.85 1017.65 1016.92 1016.43 1016.72 1016.94 1017.13 1017.30 1017.35 1018.24 1018.41 1019.86 1020.82 1021.51 1022.16 1022.93 1023.69 1024.38 1025.13
1014.98 1015.62 1016.15 1016.71 1017.22 1017.40 1017.50 1017.46 1017.59 1017.20 1017.42 1016.80 1016.76 1016.51 1016.79 1016.76 1016.48 1016.55 1016.43 1016.60 1016.73 1016.58 1017.25 1017.45 1017.39 1017.69 1017.56 1017.20 1016.61 1016.97 1017.53 1017.83 1018.20 1018.67 1019.06 1020.15 1020.76 1021.49 1022.46 1023.17 1024.01 1024.63 1025.29 1026.06
1015.21 1015.87 1016.41 1017.01 1017.57 1017.57 1017.61 1016.86 1017.56 1017.55 1017.07 1016.66 1016.69 1016.83 1016.85 1017.17 1016.65 1016.87 1017.45 1016.92 1017.23 1017.94 1017.95 1018.02 1017.62 1018.00 1017.79 1017.18 1016.96 1017.51 1018.16 1018.62 1019.07 1019.53 1019.55 1019.99 1021.30 1022.42 1023.39 1024.11 1024.73 1025.39 1026.14 1026.96
1015.45 1016.13 1016.84 1017.39 1017.29 1017.36 1017.28 1017.62 1017.43 1017.57 1017.71 1016.58 1016.21 1016.09 1016.65 1017.32 1017.51 1017.66 1017.73 1017.68 1017.93 1018.82 1018.33 1018.21 1018.28 1017.93 1017.57 1017.03 1017.32 1018.03 1018.58 1018.87 1019.61 1020.25 1020.64 1021.33 1022.06 1023.01 1023.86 1024.49 1025.18 1025.85 1026.93 1028.03
1015.57 1016.30 1017.03 1016.77 1016.39 1016.86 1016.69 1017.69 1017.77 1017.52 1017.22 1016.55 1015.93 1016.35 1016.80 1017.16 1017.45 1017.96 1018.13 1018.33 1018.52 1018.60 1018.99 1019.04 1018.51 1017.61 1017.88 1018.29 1018.43 1018.91 1019.30 1019.72 1020.19 1020.63 1021.48 1022.23 1022.91 1023.55 1024.25 1024.88 1025.69 1026.69 1027.73 1028.86
1014.95 1015.62 1015.62 1016.15 1016.71 1016.62 1017.19 1017.37 1017.39 1017.35 1016.47 1015.77 1016.09 1016.01 1016.51 1017.77 1017.40 1018.04 1018.75 1018.74 1019.07 1018.76 1019.10 1018.96 1018.45 1017.70 1018.08 1019.22 1019.68 1020.01 1020.14 1020.45 1020.80 1020.90 1021.57 1022.31 1022.79 1023.73 1024.75 1025.86 1026.80 1027.84 1028.98 1030.05
1013.54 1014.19 1015.13 1015.91 1016.59 1017.57 1017.00 1016.44 1016.27 1015.45 1014.63 1015.45 1015.42 1016.08 1016.55 1017.79 1018.01 1018.20 1019.34 1019.07 1019.48 1019.11 1019.78 1019.49 1018.37 1018.31 1019.66 1020.26 1020.81 1020.67 1020.85 1021.27 1021.54 1021.87 1022.47 1023.31 1024.12 1024.81 1025.81 1026.99 1028.09 1029.24 1030.37 1031.39
1013.81 1013.90 1014.49 1015.65 1016.58 1016.08 1014.99 1014.19 1013.74 1013.54 1013.97 1014.77 1015.10 1015.92 1016.68 1017.86 1017.95 1018.52 1018.89 1019.18 1019.58 1020.03 1019.86 1018.68 1017.94 1019.45 1020.52 1021.23 1021.77 1022.12 1022.17 1022.38 1022.81 1023.56 1024.27 1024.97 1025.68 1026.49 1027.28 1028.49 1029.72 1030.54 1031.47 1032.31
1012.67 1012.52 1014.07 1013.99 1014.17 1012.71 1011.25 1010.68 1011.28 1012.19 1012.60 1013.40 1014.17 1015.54 1016.23 1017.37 1017.77 1018.46 1018.75 1019.56 1019.62 1019.52 1019.03 1017.68 1018.12 1020.05 1021.23 1022.11 1022.73 1022.95 1023.11 1023.51 1024.40 1025.11 1025.73 1026.43 1027.15 1028.25 1029.13 1029.78 1030.52 1031.25 1032.18 1033.03
1012.04 1011.57 1012.24 1012.31 1011.39 1011.09 1011.12 1011.25 1011.59 1012.07 1012.43 1013.21 1014.41 1015.51 1015.97 1016.98 1017.80 1018.17 1019.16 1019.53 1018.78 1017.77 1016.71 1017.36 1018.85 1020.65 1021.87 1022.81 1023.47 1023.93 1024.45 1024.94 1025.42 1026.02 1026.66 1027.47 1028.22 1029.11 1030.13 1030.80 1031.15 1031.99 1032.70 1033.37
1011.15 1011.27 1011.32 1011.69 1011.71 1011.82 1011.49 1011.10 1011.49 1011.94 1012.16 1013.05 1013.81 1014.77 1015.54 1016.17 1016.51 1017.12 1017.16 1017.23 1016.46 1016.28 1017.07 1018.45 1020.03 1021.29 1022.48 1023.43 1024.19 1024.69 1025.09 1025.49 1026.00 1026.67 1027.27 1027.95 1028.82 1029.31 1030.11 1030.93 1031.74 1032.50 1032.98 1033.63
1011.29 1011.71 1011.15 1010.79 1010.22 1010.68 1011.12 1011.05 1011.36 1011.47 1011.57 1012.48 1013.41 1014.10 1014.81 1015.82 1015.71 1015.83 1015.97 1015.90 1016.24 1017.24 1018.50 1019.78 1020.69 1021.70 1022.81 1023.88 1024.72 1025.36 1025.75 1026.15 1026.66 1027.21 1027.81 1028.45 1029.04 1029.70 1030.34 1030.95 1031.90 1032.43 1033.18 1033.90
Thickness
5519 5526 5535 5544 5555 5565 5573 5596 5610 5610 5615 5630 5633 5645 5648 5643 5669 5677 5683 5688 5690 5690 5687 5683 5683 5680 5679 5682 5684 5687 5687 5690 5680 5680 5687 5694 5692 5682 5687 5678 5666 5664 5666 5636
5511 5519 5527 5537 5549 5561 5575 5600 5603 5606 5611 5628 5633 5633 5640 5647 5661 5669 5677 5679 5686 5688 5681 5672 5678 5676 5675 5677 5679 5679 5682 5676 5671 5670 5679 5688 5675 5674 5674 5674 5673 5649 5649 5633
5502 5512 5522 5532 5543 5555 5566 5592 5596 5601 5609 5613 5630 5631 5637 5643 5653 5661 5670 5675 5682 5681 5675 5679 5669 5670 5671 5672 5672 5657 5675 5666 5663 5665 5659 5669 5657 5664 5670 5668 5656 5646 5636 5628
5496 5506 5516 5526 5538 5546 5559 5585 5596 5601 5607 5611 5618 5625 5632 5638 5644 5657 5666 5668 5677 5677 5665 5668 5665 5669 5669 5669 5661 5668 5673 5651 5655 5659 5659 5658 5655 5654 5656 5648 5645 5639 5628 5623
5489 5500 5509 5520 5532 5541 5559 5578 5593 5593 5599 5607 5615 5610 5622 5633 5637 5650 5656 5663 5665 5673 5667 5673 5662 5668 5666 5664 5667 5663 5662 5642 5651 5641 5651 5652 5642 5645 5644 5640 5637 5631 5628 5613
5483 5493 5503 5515 5524 5535 5555 5564 5576 5592 5582 5599 5608 5613 5619 5624 5633 5639 5648 5661 5662 5661 5659 5667 5668 5666 5662 5661 5661 5654 5654 5645 5646 5633 5638 5639 5628 5629 5632 5628 5628 5626 5617 5608
5476 5487 5497 5508 5519 5528 5547 5556 5572 5590 5588 5597 5602 5605 5618 5621 5628 5636 5639 5649 5656 5647 5656 5660 5661 5660 5657 5654 5650 5655 5649 5647 5643 5632 5631 5605 5625 5630 5630 5622 5619 5618 5612 5605
5469 5481 5491 5501 5512 5522 5535 5548 5564 5582 5586 5595 5594 5602 5611 5616 5621 5627 5634 5635 5637 5647 5649 5646 5640 5639 5643 5639 5641 5646 5652 5649 5629 5619 5625 5620 5622 5623 5622 5620 5612 5613 5608 5599
5462 5474 5485 5495 5505 5516 5527 5539 5551 5567 5584 5586 5589 5600 5608 5614 5619 5620 5621 5625 5630 5639 5640 5638 5622 5622 5637 5631 5633 5642 5644 5650 5641 5616 5609 5609 5629 5628 5627 5624 5608 5609 5604 5595
5455 5468 5479 5489 5499 5510 5522 5535 5542 5558 5573 5575 5582 5597 5602 5610 5615 5621 5619 5621 5625 5630 5635 5628 5624 5628 5636 5631 5631 5630 5634 5635 5631 5624 5618 5621 5628 5624 5625 5606 5602 5604 5599 5591
5449 5462 5474 5485 5494 5505 5517 5530 5535 5547 5563 5568 5575 5583 5594 5603 5612 5618 5613 5617 5620 5624 5625 5625 5623 5627 5632 5633 5637 5634 5634 5628 5627 5626 5619 5606 5627 5619 5612 5609 5603 5597 5589 5579
5445 5458 5469 5480 5490 5500 5510 5526 5529 5538 5552 5562 5566 5573 5581 5587 5595 5609 5608 5617 5620 5623 5624 5619 5621 5619 5622 5633 5625 5629 5627 5636 5634 5631 5625 5619 5617 5616 5610 5609 5599 5590 5580 5568
5440 5454 5465 5475 5485 5495 5504 5518 5522 5536 5551 5557 5567 5572 5577 5582 5589 5595 5611 5610 5612 5613 5614 5619 5616 5618 5623 5622 5629 5629 5627 5628 5627 5625 5612 5612 5608 5606 5602 5598 5589 5582 5571 5560
5435 5449 5459 5470 5479 5488 5496 5511 5516 5532 5545 5547 5556 5566 5571 5576 5587 5592 5598 5605 5605 5606 5612 5608 5605 5611 5609 5618 5622 5629 5627 5625 5619 5606 5607 5603 5601 5599 5590 5583 5576 5568 5559 5551
5430 5443 5453 5464 5473 5481 5491 5501 5511 5522 5537 5545 5555 5558 5564 5574 5583 5589 5595 5601 5606 5607 5601 5594 5599 5603 5608 5606 5612 5618 5622 5620 5621 5620 5615 5614 5599 5589 5582 5576 5568 5559 5549 5539
5424 5437 5448 5457 5467 5475 5486 5493 5509 5518 5525 5545 5549 5551 5559 5568 5574 5582 5586 5591 5595 5598 5597 5593 5594 5593 5602 5606 5611 5611 5611 5611 5611 5611 5604 5604 5589 5581 5576 5567 5559 5550 5541 5531
5420 5430 5441 5451 5462 5473 5485 5499 5505 5514 5519 5533 5539 5549 5554 5560 5569 5573 5579 5581 5582 5590 5584 5586 5594 5596 5598 5599 5604 5607 5603 5602 5600 5596 5592 5581 5578 5570 5563 5555 5545 5538 5530 5520
5412 5424 5435 5444 5453 5464 5476 5495 5497 5506 5520 5532 5532 5540 5550 5553 5563 5566 5566 5575 5575 5569 5575 5578 5587 5586 5590 5593 5603 5599 5593 5591 5588 5584 5585 5583 5571 5560 5550 5543 5536 5528 5519 5510
5405 5416 5425 5432 5447 5463 5479 5484 5494 5500 5513 5529 5539 5548 5549 5549 5551 5555 5561 5565 5562 5559 5569 5575 5577 5581 5582 5598 5595 5590 5586 5586 5578 5574 5571 5566 5560 5550 5543 5537 5531 5523 5510 5498
5397 5405 5415 5428 5457 5465 5476 5477 5481 5497 5505 5524 5538 5542 5544 5548 5550 5549 5555 5554 5555 5561 5562 5562 5571 5584 5583 5580 5582 5579 5577 5574 5571 5565 5558 5554 5548 5543 5537 5533 5525 5514 5503 5490
5395 5406 5425 5444 5449 5458 5460 5467 5478 5486 5511 5527 5531 5542 5542 5537 5547 5545 5543 5548 5547 5558 5560 5563 5571 5580 5581 5570 5567 5565 5567 5566 5564 5565 5560 5555 5550 5541 5532 5522 5513 5502 5490 5476
5419 5431 5436 5438 5437 5435 5457 5477 5488 5512 5528 5524 5534 5535 5540 5533 5537 5541 5532 5543 5541 5554 5544 5547 5568 5578 5556 5555 5551 5560 5560 5558 5556 5556 5551 5545 5538 5531 5522 5511 5499 5485 5471 5458
5412 5424 5428 5428 5420 5442 5465 5472 5511 5522 5527 5527 5532 5531 5532 5529 5536 5534 5537 5536 5540 5534 5532 5558 5577 5553 5544 5543 5539 5539 5544 5545 5542 5535 5528 5521 5510 5507 5501 5484 5474 5467 5458 5450
5414 5423 5422 5437 5450 5483 5514 5538 5538 5536 5539 5538 5540 5530 5535 5531 5534 5531 5534 5529 5534 5528 5528 5567 5572 5544 5535 5531 5528 5530 5533 5532 5519 5510 5505 5499 5493 5484 5478 5472 5465 5459 5450 5441
5424 5440 5449 5453 5481 5502 5514 5523 5526 5528 5536 5535 5529 5527 5534 5528 5520 5529 5513 5513 5526 5554 5574 5572 5558 5533 5524 5520 5519 5516 5512 5508 5506 5502 5496 5487 5482 5477 5466 5461 5461 5450 5442 5436
5429 5440 5449 5463 5476 5480 5501 5520 5521 5526 5533 5533 5533 5529 5530 5530 5535 5533 5535 5547 5562 5572 5566 5553 5530 5522 5516 5512 5508 5507 5506 5505 5502 5496 5491 5487 5477 5474 5467 5459 5450 5440 5436 5429
5429 5433 5456 5479 5501 5497 5504 5516 5519 5528 5534 5530 5531 5532 5535 5528 5536 5543 5550 5558 5563 5551 5539 5525 5523 5517 5512 5505 5500 5496 5496 5496 5493 5488 5483 5478 5473 5466 5460 5454 5445 5440 5431 5423